THORAD AGENA D DEB

Satellite information

Favourite Embed

Satellite Type and Status

DEBRISIN ORBIT

Key statistics

Satellite THORAD AGENA D DEB at a glance.

Uptime

20529

Days in orbit

Revolutions

≈ 14.4

Per day

Orbit

LEO

Low Earth Orbit

Inclination

70.2

Latest

Satellite identification and parameters

Extended collection of information and parameters for THORAD AGENA D DEB.

Object identification

Identified? True

Debris? True

Object name: THORAD AGENA D DEB

International designator: 1969-082HE

Object number (NORAD): 4895

Object ID (CCSDS): 4895

Country: UNITED STATES OF AMERICA (US)

Current information (Y/N): Y

RCS size: SMALL

Orbital parameters

Period: 99.843 minutes

Inclination: 70.1704 deg

SMA: 7129.143 km

Apoapsis: 780.688 km

Periapsis: 721.328 km

RAAN: 148.0551 deg

Eccentricy: 0.00416317

Argument of periapsis: 201.4948 deg

Mean anomaly: 158.4438 deg

Mean motion: 14.42270634 rev/day

Mean motion (dot): 0.00002549 rev/day2

B* drag term: 0.00078122796 1/REarth

Two-line elements (TLE)

Creation date: Dec. 12, 2025, 10:14 a.m.

Reference frame: TEME

Reference center: EARTH

Epoch: Dec. 12, 2025, 6:36 a.m. UTC

TLE line 0: 0 THORAD AGENA D DEB

TLE line 1: 1 04895U 69082HE 25346.27512721 .00002549 00000-0 78123-3 0 9992

TLE line 2: 2 04895 70.1704 148.0551 0041632 201.4948 158.4438 14.42270634916243

Live tracking on map

Real-time ground track for satellite THORAD AGENA D DEB.

In-orbit conjunctions

A list of the most updated potential collisions computed for object THORAD AGENA D DEB.

Target Orbit TCA Probability of collision Miss distance Type
CBERS 1 DEB SSO 2025-10-18 06:41:07 0.0001271781 293.0 (m) DEBRIS
COSMOS 304 LEO 2024-10-16 02:08:03 0.0001629692 186.0 (m) PAYLOAD

Associated space launch

Poppy was the follow-on ELINT system, which succeeded the Grab ELINT satellite system.

THORAD AGENA D DEB was lifted into orbit during the mission ‘Thorad SLV-2G Agena D | Poppy 8A,B,C,D’, on board a Thorad SLV-2G Agena D space rocket.

The launch took place on Sept. 30, 1969, 1:40 p.m. from Space Launch Complex 1W.

For more information about the launch, click the button.

Launch to space Thorad SLV-2G Agena D | Poppy 8A,B,C,D
Thorad SLV-2G Agena D | Poppy 8A,B,C,D

Agency: N/A

Status: Launch Successful

Launch date: Sept. 30, 1969, 1:40 p.m. UTC

Rocket: Thorad SLV-2G Agena D

Launch pad: Space Launch Complex 1W

Location: Vandenberg SFB, CA, USA

...

Latest news about this satellite

There are no fresh news available about this satellite. Check back as we update our databases every day.


Newsletter sign-up

Weekly statistics, charts and insights to help you stay on top of the space industry.